Weather History for Vancouver, WA

Change the Weather History Date:

Tuesday, November 15, 2011

  Actual Average Record
Temperature  
Mean Temperature 38 °F 47 °F  
Max Temperature 43 °F 53 °F 64 °F (1895)
Min Temperature 32 °F 40 °F 10 °F (1955)
Degree Days  
Heating Degree Days 27    
Month to date heating degree days 304  
Since 1 July heating degree days 649  
Cooling Degree Days 0    
Month to date cooling degree days 0  
Year to date cooling degree days 339  
Moisture  
Dew Point 37 °F    
Average Humidity 93    
Maximum Humidity 100    
Minimum Humidity 86    
Precipitation  
Precipitation T in 0.20 in 1.31 in (1915)
Month to date precipitation 1.35 2.74  
Year to date precipitation 29.30 29.20  
Snow  
Snow 0.00 in - - ()
Month to date snowfall  
Since 1 July snowfall 0.0  
Since 1 September snowfall 0.0  
Snow Depth 0.00 in    
Sea Level Pressure  
Sea Level Pressure 30.26 in    
Wind  
Wind Speed 1 mph (WNW)    
Max Wind Speed 5 mph    
Max Gust Speed 6 mph    
Visibility 2 miles    
Events Fog , Snow    
T = Trace of Precipitation, MM = Missing Value Source: NWS Daily Summary

Daily Weather History Graph

Daily Weather History Graph

Search for Another Location

Airport:

Trip Planner

Search our weather history database for the weather conditions in past years. The results will help you decide how hot, cold, wet, or windy it might be!

Date:

Astronomy

Nov. 15, 2011 Rise Set
Actual Time 7:09 AM PST 4:40 PM PST
Civil Twilight 6:37 AM PST 5:12 PM PST
Nautical Twilight 6:01 AM PST 5:48 PM PST
Astronomical Twilight 5:26 AM PST 6:23 PM PST
Moon 8:54 PM PST (11/15) 11:14 AM PST (11/15)
Length of Visible Light 10h 34m
Length of Day
9h 30m
Waning Gibbous, 78% of the Moon is Illuminated
Nov 15
Waning Gibbous
Nov 18
Last Quarter
Nov 24
New
Dec 2
First Quarter
Dec 10
Full

Hourly Weather History & Observations

Time (PST) Temp. Windchill Dew Point Humidity Pressure Visibility Wind Dir Wind Speed Gust Speed Precip Events Conditions
12:06 AM 35.6 °F - 35.6 °F 100% 30.19 in 2.5 mi Calm Calm - N/A   Clear
12:14 AM 35.6 °F - 33.8 °F 93% 30.19 in 7.0 mi Calm Calm - N/A   Clear
12:53 AM 36.0 °F - 34.0 °F 93% 30.20 in 3.0 mi Calm Calm - N/A   Clear
12:55 AM 35.6 °F - 33.8 °F 93% 30.20 in 1.5 mi Calm Calm - N/A   Partly Cloudy
12:59 AM 33.8 °F - 33.8 °F 100% 30.20 in 0.8 mi Calm Calm - N/A   Partly Cloudy
1:08 AM 35.6 °F - 33.8 °F 93% 30.20 in 1.5 mi Calm Calm - N/A   Clear
1:23 AM 33.8 °F - 33.8 °F 100% 30.20 in 1.8 mi Calm Calm - N/A   Partly Cloudy
1:30 AM 35.6 °F - 33.8 °F 93% 30.21 in 1.0 mi Calm Calm - N/A   Partly Cloudy
1:35 AM 35.6 °F - 33.8 °F 93% 30.21 in 2.5 mi Calm Calm - N/A   Clear
1:53 AM 33.1 °F - 32.0 °F 96% 30.21 in 3.0 mi Calm Calm - N/A   Clear
2:03 AM 33.8 °F - 30.2 °F 87% 30.21 in 1.8 mi Calm Calm - N/A   Clear
2:09 AM 33.8 °F - 30.2 °F 87% 30.22 in 0.8 mi Calm Calm - N/A   Clear
2:22 AM 33.8 °F - 30.2 °F 87% 30.22 in 0.5 mi Calm Calm - N/A Fog Fog
2:29 AM 33.8 °F - 32.0 °F 93% 30.22 in 1.0 mi Calm Calm - N/A   Mostly Cloudy
2:34 AM 33.8 °F - 32.0 °F 93% 30.22 in 1.8 mi Calm Calm - N/A   Mostly Cloudy
2:41 AM 35.6 °F - 33.8 °F 93% 30.22 in 3.0 mi Calm Calm - N/A   Mostly Cloudy
2:53 AM 35.1 °F - 34.0 °F 96% 30.22 in 6.0 mi Calm Calm - N/A   Overcast
3:20 AM 35.6 °F - 35.6 °F 100% 30.22 in 1.8 mi Calm Calm - N/A   Overcast
3:27 AM 37.4 °F - 35.6 °F 93% 30.22 in 0.8 mi Calm Calm - N/A   Mist
6:12 AM 37.4 °F - 37.4 °F 100% 30.25 in 0.5 mi Calm Calm - 0.00 in Fog , Snow Light Snow
7:37 AM 37.4 °F - 37.4 °F 100% 30.28 in 0.2 mi Calm Calm - N/A Fog Fog
7:53 AM 37.9 °F - 37.0 °F 97% 30.28 in 0.2 mi Calm Calm - N/A Fog Fog
8:53 AM 39.0 °F 36.8 °F 37.9 °F 96% 30.30 in 0.5 mi North 3.5 mph - N/A Fog Fog
9:53 AM 39.0 °F - 37.9 °F 96% 30.31 in 1.0 mi Calm Calm - N/A   Overcast
10:42 AM 39.2 °F 37.0 °F 37.4 °F 93% 30.32 in 0.8 mi NNE 3.5 mph - N/A   Overcast
10:53 AM 39.9 °F - 37.9 °F 93% 30.32 in 0.8 mi Calm Calm - N/A   Overcast
11:53 AM 39.9 °F - 39.0 °F 97% 30.32 in 0.8 mi Calm Calm - N/A   Overcast
12:40 PM 42.8 °F - 39.2 °F 87% 30.31 in 1.0 mi Calm Calm - N/A   Overcast
12:53 PM 41.0 °F - 39.0 °F 93% 30.31 in 1.0 mi Calm Calm - N/A   Overcast
1:53 PM 43.0 °F - 39.9 °F 89% 30.31 in 1.5 mi Calm Calm - N/A   Overcast
2:10 PM 42.8 °F - 39.2 °F 87% 30.30 in 1.5 mi Calm Calm - N/A   Overcast
2:53 PM 43.0 °F - 39.9 °F 89% 30.30 in 1.5 mi Calm Calm - N/A   Overcast
3:28 PM 42.8 °F 41.1 °F 39.2 °F 87% 30.29 in 4.0 mi West 3.5 mph - N/A   Overcast
3:53 PM 43.0 °F 41.3 °F 39.9 °F 89% 30.30 in 4.0 mi WNW 3.5 mph - N/A   Overcast
4:53 PM 42.1 °F - 39.9 °F 92% 30.30 in 6.0 mi Calm Calm - N/A   Overcast
5:17 PM 42.8 °F - 39.2 °F 87% 30.29 in 5.0 mi Calm Calm - N/A   Overcast
5:53 PM 41.0 °F 39.0 °F 39.0 °F 93% 30.30 in 5.0 mi NW 3.5 mph - N/A   Overcast
6:34 PM 41.0 °F 39.0 °F 39.2 °F 93% 30.29 in 1.8 mi WSW 3.5 mph - N/A   Overcast
6:43 PM 41.0 °F 39.0 °F 39.2 °F 93% 30.29 in 1.0 mi West 3.5 mph - N/A   Overcast
6:53 PM 41.0 °F - 39.9 °F 96% 30.29 in 0.8 mi Calm Calm - N/A   Overcast
7:07 PM 41.0 °F - 39.2 °F 93% 30.29 in 1.0 mi Calm Calm - N/A   Mist
7:26 PM 41.0 °F - 39.2 °F 93% 30.28 in 2.0 mi Calm Calm - N/A   Overcast
7:35 PM 41.0 °F - 39.2 °F 93% 30.28 in 3.0 mi Calm Calm - N/A   Overcast
7:53 PM 41.0 °F - 39.9 °F 96% 30.28 in 5.0 mi Calm Calm - N/A   Overcast
8:53 PM 41.0 °F - 39.9 °F 96% 30.28 in 5.0 mi Calm Calm - N/A   Overcast
9:53 PM 41.0 °F - 39.0 °F 93% 30.28 in 6.0 mi Calm Calm - N/A   Overcast
10:53 PM 41.0 °F - 37.9 °F 89% 30.27 in 8.0 mi Calm Calm - N/A   Overcast
11:53 PM 41.0 °F - 37.9 °F 89% 30.25 in 9.0 mi Calm Calm - N/A   Overcast